Hourly Weather Roundup
Issued by NWS Central Illinois

Home | Current Version | Previous Version | Graphics & Text | Print | Product List | Glossary On
Versions: 1 2 3 4 5 6 7 8 9 10 11 12 13 14 15 16 17 18 19 20 21 22 23 24 25 26 27 28 29 30 31 32 33 34 35 36 37 38 39 40 41 42 43 44 45 46 47 48 49 50
000
NZUS43 KILX 282310
HWRILX

Area Weather Roundup
National Weather Service Lincoln IL
600 PM CDT WED JUN 28 2017

NOTE:  "FAIR" indicates few or no clouds below 12,000 feet, with
       no sigificant weather and/or obstructions to visibility.


CITY           SKY/WX    TMP DP  RH WIND       PRES   REMARKS
Bloomington    SUNNY     82  65  56 S22G29    29.84F HX  84
Champaign      CLOUDY    83  59  44 S21G28    29.90F HX  83
Danville       CLOUDY    80  62  53 S20G26    29.90F HX  81
Decatur        SUNNY     83  60  45 S20G28    29.88F HX  83
Effingham      SUNNY     83  64  51 SE14G20   29.93F HX  84
Flora          MOSUNNY   86  64  48 S16G25    29.94F HX  87
Galesburg      PTSUNNY   82  68  62 S15G21    29.76F HX  85
Jacksonville   SUNNY     85  63  48 S17G24    29.81F HX  86
Lacon          CLOUDY    82  64  56 S13G21    29.77F HX  83
Lawrenceville  CLOUDY    82  63  52 S16       29.97F HX  83
Litchfield     SUNNY     83  62  50 S15G28    29.88S HX  83
$$


CITY           SKY/WX    TMP DP  RH WIND       PRES   REMARKS
Lincoln        SUNNY     85  62  45 S17G28    29.83F HX  85
Macomb         MOSUNNY   84  64  50 S17G26    29.78F HX  85
Mattoon        SUNNY     82  62  50 S13G24    29.92F HX  83
Mt Carmel AP   MOSUNNY   83  60  46 S10G22    29.96S HX  83
Olney-Noble AP PTSUNNY   82  65  55 S15       29.95F HX  84
Paris AP       PTSUNNY   80  64  57 S15G21    29.94F HX  82
Peoria         CLOUDY    84  63  49 S22G28    29.78F HX  85
Pontiac        MOSUNNY   83  64  51 S20G29    29.84F HX  84
Rantoul        CLOUDY    84  64  50 S17G24    29.90F HX  85
Robinson       MOSUNNY   81  63  53 S17G23    29.95F HX  82
Springfield    SUNNY     86  66  51 S18G28    29.84F HX  88
Taylorville    SUNNY     83  63  50 S18       29.87F HX  84
$$

...REGIONAL REPORTS...


CITY           SKY/WX    TMP DP  RH WIND       PRES   REMARKS
Chicago O`Hare CLOUDY    78  61  55 S23G32    29.79F HX  80
Kankakee       PTSUNNY   82  60  48 SW14G24   29.88F HX  82
Moline         CLOUDY    82  68  62 S13G21    29.72F HX  85
Mount Sterling SUNNY     85  62  47 S16G24    29.78F HX  85
Mount Vernon   MOSUNNY   85  64  49 S17G23    29.93F HX  86
Pittsfield     SUNNY     86  65  48 S16       29.80F HX  87
Quincy         SUNNY     87  66  49 S18G25    29.77F HX  89
Rockford       PTSUNNY   77  67  71 S15G23    29.77F
$$


CITY           SKY/WX    TMP DP  RH WIND       PRES   REMARKS
Burlington     MOSUNNY   84  70  62 S20G25    29.74F HX  88
Cedar Rapids   PTSUNNY   82  72  71 S18G30    29.65F HX  87
Des Moines     TSTM      72  68  87 S9        29.66F
Kirksville     PTSUNNY   83  69  62 S14G23    29.77S HX  86
Ottumwa        PTSUNNY   83  69  62 S17G28    29.68F HX  86
St Louis       MOSUNNY   90  61  37 SW20G26   29.86F HX  90
$$


CITY           SKY/WX    TMP DP  RH WIND       PRES   REMARKS
Terre Haute    CLOUDY    81  60  48 S15G21    29.95F HX  82
Evansville     PTSUNNY   83  58  42 S14G20    29.98F HX  83
Indianapolis   CLOUDY    78  56  46 S17       29.98R
Lafayette      CLOUDY    79  58  48 S12G22    29.93F HX  80
Madison        TSTM      72  67  84 N9        29.72S
Milwaukee      TSTM      71  66  84 S13       29.76F
$$






USA.gov is the U.S. government's official web portal to all federal, state and local government web resources and services.